EW6271 Weather Reports


time (UTC)temp
C
wind
direction
speed
KPH
gust
KPH
rain 1hr
cm
rain 24hr
cm
rain mn
cm
humidity
%
barometer
mb
20260505065603 7 9 0.0 3.2 0.00 0.00 0.00 83 1008.0
20260505065101 7 13 0.0 1.6 0.00 0.00 0.00 83 1008.0
20260505064501 7 13 0.0 1.6 0.00 0.00 0.00 82 1008.0
20260505064006 7 13 0.0 1.6 0.00 0.00 0.00 83 1007.9
20260505063507 7 13 0.0 1.6 0.00 0.00 0.00 83 1007.8
20260505063002 7 5 0.0 0.0 0.00 0.00 0.00 82 1007.9
20260505062602 8 5 0.0 0.0 0.00 0.00 0.00 82 1007.8
20260505062102 8 12 0.0 0.0 0.00 0.00 0.00 81 1007.8
20260505061602 8 13 0.0 0.0 0.00 0.00 0.00 81 1007.8
20260505061006 8 13 0.0 3.2 0.00 0.00 0.00 80 1007.7
20260505060602 8 13 0.0 3.2 0.00 0.00 0.00 80 1007.7
20260505060104 8 360 1.6 3.2 0.00 0.00 0.00 80 1007.7
20260505055602 8 10 1.6 4.8 0.00 0.00 0.00 81 1007.6
20260505055002 8 355 3.2 4.8 0.00 0.00 0.00 81 1007.6
20260505054603 9 355 3.2 4.8 0.00 0.00 0.00 80 1007.6
20260505054002 9 355 1.6 3.2 0.00 0.00 0.00 80 1007.5
20260505053601 9 355 1.6 3.2 0.00 0.00 0.00 79 1007.5
20260505053002 9 355 1.6 3.2 0.00 0.00 0.00 79 1007.5
20260505052502 10 355 0.0 3.2 0.00 0.00 0.00 78 1007.5
20260505052004 10 355 0.0 0.0 0.00 0.00 0.00 78 1007.3
20260505051505 10 355 0.0 1.6 0.00 0.00 0.00 77 1007.3
20260505051003 10 355 0.0 1.6 0.00 0.00 0.00 77 1007.2
20260505050502 10 355 0.0 1.6 0.00 0.00 0.00 76 1007.3
20260505041505 11 5 1.6 3.2 0.00 0.00 0.00 72 1006.7
20260505041003 11 5 1.6 3.2 0.00 0.00 0.00 72 1006.6
20260505040502 12 5 0.0 3.2 0.00 0.00 0.00 71 1006.5
20260505035603 12 61 0.0 4.8 0.00 0.00 0.00 69 1006.4
20260505035001 12 355 0.0 3.2 0.00 0.00 0.00 69 1006.4
20260505034505 12 355 1.6 3.2 0.00 0.00 0.00 69 1006.3
20260505034103 13 355 0.0 3.2 0.00 0.00 0.00 68 1006.2
20260505033603 13 355 1.6 3.2 0.00 0.00 0.00 67 1006.2
20260505033105 13 355 0.0 1.6 0.00 0.00 0.00 66 1006.1
20260505032502 13 355 0.0 1.6 0.00 0.00 0.00 64 1006.0
20260505032103 14 355 0.0 1.6 0.00 0.00 0.00 63 1005.9
20260505031509 15 355 0.0 3.2 0.00 0.00 0.00 60 1005.9
20260505031004 15 355 0.0 3.2 0.00 0.00 0.00 59 1005.8
20260505030503 15 355 0.0 3.2 0.00 0.00 0.00 59 1005.8
20260505030002 16 355 0.0 3.2 0.00 0.00 0.00 56 1005.7
20260505025602 16 355 0.0 3.2 0.00 0.00 0.00 56 1005.7
20260505025006 16 355 0.0 3.2 0.00 0.00 0.00 54 1005.5
20260505024502 17 355 0.0 1.6 0.00 0.00 0.00 52 1005.5
20260505024103 17 355 0.0 1.6 0.00 0.00 0.00 51 1005.5
20260505023503 18 355 0.0 1.6 0.00 0.00 0.00 50 1005.4
20260505023105 18 355 0.0 1.6 0.00 0.00 0.00 47 1005.4
20260505022602 18 355 0.0 0.0 0.00 0.00 0.00 44 1005.4
20260505022003 19 355 0.0 1.6 0.00 0.00 0.00 42 1005.3
20260505021603 19 355 0.0 1.6 0.00 0.00 0.00 42 1005.2
20260505021002 20 360 0.0 3.2 0.00 0.00 0.00 41 1005.2
20260505020502 20 355 0.0 4.8 0.00 0.00 0.00 37 1005.1
20260505020002 20 11 1.6 4.8 0.00 0.00 0.00 37 1005.1
20260505015602 20 32 1.6 4.8 0.00 0.00 0.00 36 1005.0
20260505015008 20 348 1.6 8.0 0.00 0.00 0.00 36 1004.9
20260505014504 21 48 0.0 4.8 0.00 0.00 0.00 34 1004.9
20260505014006 21 9 1.6 8.0 0.00 0.00 0.00 33 1004.9
20260505013503 21 9 3.2 8.0 0.00 0.00 0.00 34 1004.9
20260505013103 21 19 1.6 8.0 0.00 0.00 0.00 34 1005.0
20260505012502 21 17 1.6 9.7 0.00 0.00 0.00 35 1004.9
20260505012003 21 14 3.2 9.7 0.00 0.00 0.00 34 1005.0
20260505011602 21 5 1.6 9.7 0.00 0.00 0.00 34 1005.0
20260505011008 22 40 4.8 14.5 0.00 0.00 0.00 35 1005.0
20260505010501 22 12 6.4 14.5 0.00 0.00 0.00 36 1004.9
20260505010118 22 346 3.2 19.3 0.00 0.00 0.00 36 1005.0
20260505005602 22 40 3.2 19.3 0.00 0.00 0.00 35 1005.0
20260505005002 22 355 3.2 14.5 0.00 0.00 0.00 34 1005.0
20260505004602 23 355 4.8 25.7 0.00 0.00 0.00 35 1005.0
20260505004002 23 22 4.8 25.7 0.00 0.00 0.00 33 1004.9
20260505003603 23 302 4.8 16.1 0.00 0.00 0.00 34 1005.0
20260505002601 23 360 3.2 14.5 0.00 0.00 0.00 33 1005.0
20260505002007 23 5 1.6 16.1 0.00 0.00 0.00 35 1005.0
20260505001502 23 49 1.6 16.1 0.00 0.00 0.00 34 1005.1
20260505001002 23 43 3.2 11.3 0.00 0.00 0.00 33 1005.1
20260505000602 23 67 3.2 11.3 0.00 0.00 0.00 34 1005.0
20260505000004 23 275 1.6 9.7 0.00 0.00 0.00 34 1005.0
20260504235604 23 138 3.2 14.5 0.00 0.00 0.00 32 1005.1
20260504235003 23 5 1.6 14.5 0.00 0.00 0.00 32 1005.1
20260504234604 23 311 1.6 9.7 0.00 0.00 0.00 34 1005.0
20260504234004 23 54 1.6 8.0 0.00 0.00 0.00 36 1005.0
20260504233502 23 48 4.8 8.0 0.00 0.00 0.00 36 1005.0
20260504233002 23 11 3.2 12.9 0.00 0.00 0.00 35 1005.0
20260504232603 23 101 3.2 12.9 0.00 0.00 0.00 37 1005.0
20260504232005 23 48 4.8 9.7 0.00 0.00 0.00 34 1005.0
20260504231502 23 111 3.2 8.0 0.00 0.00 0.00 35 1005.1
20260504231102 23 57 1.6 12.9 0.00 0.00 0.00 35 1005.1
20260504230502 23 117 4.8 12.9 0.00 0.00 0.00 33 1005.0
20260504230003 24 97 4.8 14.5 0.00 0.00 0.00 36 1005.1
20260504225508 24 246 3.2 14.5 0.00 0.00 0.00 33 1005.2
20260504225104 24 128 4.8 12.9 0.00 0.00 0.00 37 1005.3
20260504224507 23 79 3.2 12.9 0.00 0.00 0.00 36 1005.2
20260504224103 23 58 4.8 12.9 0.00 0.00 0.00 36 1005.4
20260504223506 24 118 3.2 12.9 0.00 0.00 0.00 36 1005.3
20260504223105 23 60 3.2 12.9 0.00 0.00 0.00 38 1005.5
20260504222604 23 73 4.8 14.5 0.00 0.00 0.00 36 1005.5
20260504222001 23 85 3.2 9.7 0.00 0.00 0.00 38 1005.5
20260504221507 23 69 4.8 12.9 0.00 0.00 0.00 37 1005.4
20260504221103 23 142 4.8 12.9 0.00 0.00 0.00 35 1005.4
20260504220603 23 123 4.8 12.9 0.00 0.00 0.00 38 1005.5
20260504220002 23 44 6.4 12.9 0.00 0.00 0.00 38 1005.6
20260504215507 23 98 4.8 11.3 0.00 0.00 0.00 41 1005.6
20260504215004 23 136 4.8 11.3 0.00 0.00 0.00 40 1005.7
20260504214502 23 81 4.8 11.3 0.00 0.00 0.00 41 1005.8
20260504214102 23 219 4.8 11.3 0.00 0.00 0.00 39 1005.7
20260504213507 23 76 4.8 12.9 0.00 0.00 0.00 40 1005.8
20260504213003 23 130 4.8 14.5 0.00 0.00 0.00 41 1005.9
20260504212503 23 228 6.4 14.5 0.00 0.00 0.00 41 1005.9
20260504212003 23 94 4.8 11.3 0.00 0.00 0.00 40 1005.9
20260504211502 23 183 3.2 14.5 0.00 0.00 0.00 40 1006.0
20260504211002 22 14 4.8 14.5 0.00 0.00 0.00 41 1006.1
20260504210508 22 34 4.8 9.7 0.00 0.00 0.00 38 1006.1
20260504210003 23 61 4.8 14.5 0.00 0.00 0.00 38 1006.2
20260504205502 23 167 3.2 14.5 0.00 0.00 0.00 41 1006.2
20260504205104 23 192 8.0 12.9 0.00 0.00 0.00 40 1006.2
20260504204606 23 27 3.2 11.3 0.00 0.00 0.00 40 1006.3
20260504204101 23 240 4.8 16.1 0.00 0.00 0.00 40 1006.3
20260504203506 22 31 4.8 16.1 0.00 0.00 0.00 40 1006.3
20260504203102 23 188 6.4 12.9 0.00 0.00 0.00 38 1006.3
20260504202503 22 215 3.2 12.9 0.00 0.00 0.00 41 1006.4
20260504202004 22 181 8.0 12.9 0.00 0.00 0.00 39 1006.4
20260504201505 22 129 4.8 12.9 0.00 0.00 0.00 41 1006.5
20260504201008 22 127 3.2 16.1 0.00 0.00 0.00 41 1006.5
20260504200507 22 190 3.2 9.7 0.00 0.00 0.00 40 1006.5
20260504200003 22 257 3.2 8.0 0.00 0.00 0.00 41 1006.5
20260504195603 22 142 3.2 9.7 0.00 0.00 0.00 40 1006.5
20260504195103 22 158 4.8 9.7 0.00 0.00 0.00 39 1006.5
20260504194502 22 42 3.2 8.0 0.00 0.00 0.00 40 1006.5
20260504194003 22 28 1.6 12.9 0.00 0.00 0.00 42 1006.5
20260504193503 21 22 6.4 12.9 0.00 0.00 0.00 37 1006.5
20260504193004 22 78 4.8 8.0 0.00 0.00 0.00 43 1006.7
20260504192603 21 153 0.0 8.0 0.00 0.00 0.00 42 1006.7
20260504192003 22 17 3.2 9.7 0.00 0.00 0.00 45 1006.7
20260504191502 22 177 4.8 9.7 0.00 0.00 0.00 42 1006.8
20260504191003 22 170 3.2 9.7 0.00 0.00 0.00 44 1006.7
20260504190601 21 209 1.6 9.7 0.00 0.00 0.00 45 1006.8
20260504190006 21 271 1.6 9.7 0.00 0.00 0.00 43 1006.9
20260504185507 20 113 4.8 9.7 0.00 0.00 0.00 51 1006.8
20260504185003 20 190 1.6 9.7 0.00 0.00 0.00 47 1006.9
20260504184502 19 83 1.6 6.4 0.00 0.00 0.00 46 1006.9
20260504184003 19 52 3.2 6.4 0.00 0.00 0.00 50 1007.0
20260504183602 20 344 3.2 6.4 0.00 0.00 0.00 48 1007.0
20260504183002 19 43 1.6 6.4 0.00 0.00 0.00 50 1007.1
20260504182503 18 83 3.2 11.3 0.00 0.00 0.00 49 1007.1
20260504182103 18 145 4.8 11.3 0.00 0.00 0.00 50 1007.1
20260504181602 18 110 3.2 6.4 0.00 0.00 0.00 49 1007.2
20260504181007 18 90 0.0 6.4 0.00 0.00 0.00 49 1007.2
20260504180507 18 119 1.6 6.4 0.00 0.00 0.00 50 1007.2
20260504180004 18 49 1.6 6.4 0.00 0.00 0.00 51 1007.3
20260504175502 18 116 1.6 9.7 0.00 0.00 0.00 49 1007.3
20260504175002 18 105 4.8 9.7 0.00 0.00 0.00 52 1007.3
20260504174503 18 78 1.6 9.7 0.00 0.00 0.00 48 1007.4
20260504174104 18 196 3.2 9.7 0.00 0.00 0.00 47 1007.4
20260504173503 19 175 3.2 6.4 0.00 0.00 0.00 46 1007.4
20260504173002 18 188 3.2 6.4 0.00 0.00 0.00 49 1007.4
20260504172502 19 117 1.6 6.4 0.00 0.00 0.00 45 1007.4
20260504172002 18 196 3.2 9.7 0.00 0.00 0.00 45 1007.4
20260504171502 18 175 3.2 9.7 0.00 0.00 0.00 48 1007.3
20260504171003 17 186 4.8 9.7 0.00 0.00 0.00 46 1007.3
20260504170603 17 154 1.6 11.3 0.00 0.00 0.00 47 1007.3
20260504170104 18 148 4.8 9.7 0.00 0.00 0.00 45 1007.3
20260504151101 15 205 0.0 0.0 0.00 0.00 0.00 58 1007.7
20260504150603 15 117 0.0 0.0 0.00 0.00 0.00 58 1007.8
20260504150112 15 190 0.0 0.0 0.00 0.00 0.00 55 1007.8
20260504141105 8 53 0.0 0.0 0.00 0.00 0.00 83 1007.9
20260504140502 7 27 0.0 0.0 0.00 0.00 0.00 83 1007.9
20260504130506 3 21 0.0 0.0 0.00 0.00 0.00 91 1007.5
20260504130104 3 21 0.0 0.0 0.00 0.00 0.00 91 1007.5
20260504110504 3 355 0.0 0.0 0.00 0.00 0.00 89 1007.8
20260504100507 5 5 0.0 3.2 0.00 0.00 0.00 87 1007.7
20260504100117 5 5 0.0 3.2 0.00 0.00 0.00 87 1007.8
20260504081503 5 355 1.6 3.2 0.00 0.00 0.00 85 1007.8
20260504081004 5 355 1.6 4.8 0.00 0.00 0.00 85 1007.8
20260504080507 5 355 1.6 4.8 0.00 0.00 0.00 86 1007.8
20260504080116 6 355 1.6 4.8 0.00 0.00 0.00 85 1007.7